星链-11636 (STARLINK-11636)

导读

STARLINK-11636是美国SpaceX星链星座的卫星,于2025年3月13日发射,属于星链低轨互联网卫星星座扩容项目,该卫星承担全球宽带互联网接入服务,尤其为偏远地区、移动载体提供网络覆盖,进一步扩充星链星座的服务容量与覆盖范围,服务军用及民用通信领域。

基本信息
目录编号:
63194
目录名称:
STARLINK-11636
国际标识:
2025-048M
轨道中心:
EARTH
卫星名称:
星链-11636
卫星全名:
星链-11636 (STARLINK-11636)
卫星状态:
在轨 (已飞行458 天)
发射日期:
2025-03-13 UTC
国别 :
美国 (US)
星等 :
--
轨道信息
数据来源 国际轨道数据
星历时间: 2026-06-14T10:37:09+0800
14小时前
查看轨道信息
半长轴: 6734.538km
偏心率: 0.0001585
轨道倾角: 43.000°
近地点辐角 265.722°
升交点赤经 98.871°
平近点角 94.347°
近地点: 355.333km
远地点: 357.469km
周期: 91.669分钟
每日圈数: 15.70873
详细信息
固有亮度:
5
最大亮度:
2.5
卫星平台:
Starlink V1.0
覆盖范围:
全球
运营商:
太空探索技术公司
运营商所在国:
美国
制造商(研发单位):
太空探索技术公司
制造商所在国:
美国
使用方式:
暂无
卫星简介
Starlink 计划是 SpaceX 推出的全球卫星互联网项目,通过发射低轨道卫星,为全球尤其是偏远地区提供高速、低延迟的互联网服务。自 2019 年起,Starlink 已部署数千颗卫星,旨在缩小全球数字鸿沟,推动互联网普及。该项目还为军事、航空等行业提供通信支持,带来广泛经济效益。
2D轨道图
3D轨道图
轨道高度分析图
轨道倾角分析图
轨道综合分析图
查看轨道综合分析图